FW4267 Weather Reports


Display with metric or nautical units.
time (UTC)temp
F
wind
direction
speed
MPH
gust
MPH
rain 1hr
in
rain 24hr
in
rain mn
in
humidity
%
barometer
mb
20260507130407 68 110 2.0 5.0 0.00 0.00 0.00 56 1011.9
20260507125906 68 66 1.0 9.0 0.00 0.00 0.00 57 1011.9
20260507125404 67 68 0.0 9.0 0.00 0.00 0.00 58 1012.0
20260507124905 67 131 4.0 7.0 0.00 0.00 0.00 57 1012.0
20260507124404 68 111 1.0 3.0 0.00 0.00 0.00 57 1012.1
20260507123905 68 121 0.0 2.0 0.00 0.00 0.00 56 1012.2
20260507123405 67 252 0.0 7.0 0.00 0.00 0.00 60 1012.2
20260507122905 67 58 3.0 7.0 0.00 0.00 0.00 58 1012.3
20260507122403 68 341 1.0 6.0 0.00 0.00 0.00 57 1012.2
20260507121904 67 58 0.0 6.0 0.00 0.00 0.00 61 1012.2
20260507121404 67 102 4.0 6.0 0.00 0.00 0.00 57 1012.3
20260507120916 67 117 0.0 3.0 0.00 0.00 0.00 62 1012.4
20260507120403 67 216 0.0 4.0 0.00 0.00 0.00 59 1012.4
20260507115903 66 82 0.0 9.0 0.00 0.00 0.00 64 1012.4
20260507115404 65 87 2.0 9.0 0.00 0.00 0.00 60 1012.5
20260507115214 66 76 1.0 5.0 0.00 0.00 0.00 60 1012.6
20260507114711 66 100 2.0 4.0 0.00 0.00 0.00 61 1012.8
20260507113902 66 94 0.0 6.0 0.00 0.00 0.00 59 1012.8
20260507113403 65 75 0.0 6.0 0.00 0.00 0.00 60 1012.9
20260507112902 65 106 2.0 6.0 0.00 0.00 0.00 60 1012.9
20260507112402 64 106 0.0 6.0 0.00 0.00 0.00 62 1013.0
20260507111902 64 106 4.0 9.0 0.00 0.00 0.00 57 1013.1
20260507111707 64 120 5.0 9.0 0.00 0.00 0.00 58 1013.0
20260507110916 65 100 0.0 4.0 0.00 0.00 0.00 64 1013.1
20260507110401 64 102 2.0 4.0 0.00 0.00 0.00 59 1013.1
20260507105903 65 82 0.0 3.0 0.00 0.00 0.00 64 1013.3
20260507105401 64 331 0.0 3.0 0.00 0.00 0.00 63 1013.3
20260507104901 64 114 0.0 2.0 0.00 0.00 0.00 68 1013.2
20260507104401 64 134 0.0 2.0 0.00 0.00 0.00 65 1013.3
20260507104209 64 227 1.0 3.0 0.00 0.00 0.00 62 1013.3
20260507103402 63 69 0.0 3.0 0.00 0.00 0.00 67 1013.4
20260507102901 62 118 1.0 4.0 0.00 0.00 0.00 69 1013.4
20260507102707 62 94 1.0 4.0 0.00 0.00 0.00 66 1013.4
20260507101903 62 109 2.0 5.0 0.00 0.00 0.00 65 1013.4
20260507101401 62 111 3.0 5.0 0.00 0.00 0.00 62 1013.4
20260507100901 62 133 1.0 6.0 0.00 0.00 0.00 64 1013.4
20260507100400 62 96 2.0 6.0 0.00 0.00 0.00 62 1013.5
20260507095900 62 92 4.0 5.0 0.00 0.00 0.00 63 1013.5
20260507095401 63 116 3.0 5.0 0.00 0.00 0.00 65 1013.5
20260507094901 62 80 0.0 4.0 0.00 0.00 0.00 71 1013.5
20260507094709 62 116 3.0 6.0 0.00 0.00 0.00 66 1013.5
20260507093901 62 69 1.0 6.0 0.00 0.00 0.00 68 1013.6
20260507093400 62 96 2.0 5.0 0.00 0.00 0.00 68 1013.6
20260507092859 62 71 1.0 4.0 0.00 0.00 0.00 68 1013.5
20260507092400 61 121 2.0 5.0 0.00 0.00 0.00 68 1013.5
20260507091859 62 118 1.0 5.0 0.00 0.00 0.00 73 1013.6
20260507091401 61 87 1.0 4.0 0.00 0.00 0.00 72 1013.6
20260507090955 60 100 2.0 5.0 0.00 0.00 0.00 71 1013.7
20260507085859 60 69 1.0 6.0 0.00 0.00 0.00 76 1013.6
20260507085400 58 114 1.0 6.0 0.00 0.00 0.00 75 1013.5
20260507085205 58 97 3.0 5.0 0.00 0.00 0.00 75 1013.6
20260507084358 58 86 1.0 4.0 0.00 0.00 0.00 76 1013.6
20260507083859 58 90 2.0 4.0 0.00 0.00 0.00 74 1013.7
20260507083358 58 90 1.0 6.0 0.00 0.00 0.00 76 1013.7
20260507082859 58 116 1.0 6.0 0.00 0.00 0.00 76 1013.7
20260507082358 58 107 3.0 4.0 0.00 0.00 0.00 79 1013.7
20260507081859 58 92 1.0 4.0 0.00 0.00 0.00 80 1013.6
20260507081359 57 97 1.0 4.0 0.00 0.00 0.00 81 1013.6
20260507080859 57 111 3.0 4.0 0.00 0.00 0.00 79 1013.7
20260507080357 58 92 1.0 3.0 0.00 0.00 0.00 81 1013.7
20260507080203 57 106 1.0 3.0 0.00 0.00 0.00 79 1013.7
20260507075358 57 89 1.0 3.0 0.00 0.00 0.00 81 1013.7
20260507074857 57 172 0.0 3.0 0.00 0.00 0.00 82 1013.7
20260507074358 57 87 1.0 4.0 0.00 0.00 0.00 81 1013.7
20260507073856 56 107 2.0 5.0 0.00 0.00 0.00 84 1013.6
20260507073358 56 94 2.0 5.0 0.00 0.00 0.00 82 1013.6
20260507072857 56 68 1.0 3.0 0.00 0.00 0.00 85 1013.5
20260507072356 56 87 0.0 2.0 0.00 0.00 0.00 87 1013.5
20260507071857 55 252 0.0 4.0 0.00 0.00 0.00 90 1013.5
20260507071356 54 243 0.0 4.0 0.00 0.00 0.00 89 1013.5
20260507070859 54 76 1.0 3.0 0.00 0.00 0.00 90 1013.6
20260507070358 54 90 0.0 2.0 0.00 0.00 0.00 94 1013.6
20260507065857 53 80 0.0 1.0 0.00 0.00 0.00 96 1013.6
20260507065355 52 75 0.0 1.0 0.00 0.00 0.00 96 1013.6
20260507064857 51 227 0.0 1.0 0.00 0.00 0.00 95 1013.6
20260507064706 52 217 0.0 2.0 0.00 0.00 0.00 96 1013.6
20260507064203 52 83 0.0 2.0 0.00 0.00 0.00 97 1013.7
20260507063658 51 149 0.0 1.0 0.00 0.00 0.00 97 1013.7
20260507063205 50 149 0.0 1.0 0.00 0.00 0.00 97 1013.6
20260507062355 49 200 0.0 1.0 0.00 0.00 0.00 97 1013.6
20260507062322 47 351 0.0 0.0 0.00 0.00 0.00 98 1013.5
20260507062316 49 96 0.0 1.0 0.00 0.00 0.00 98 1013.5
20260507060855 47 351 0.0 0.0 0.00 0.00 0.00 98 1013.6
20260507060356 46 351 0.0 0.0 0.00 0.00 0.00 97 1013.6
20260507055855 45 351 0.0 1.0 0.00 0.00 0.00 97 1013.6
20260507055705 45 351 0.0 1.0 0.00 0.00 0.00 97 1013.5
20260507055013 45 351 0.0 0.0 0.00 0.00 0.00 97 1013.5
20260507054945 45 351 0.0 0.0 0.00 0.00 0.00 97 1013.5
20260507053854 44 353 0.0 0.0 0.00 0.00 0.00 97 1013.5
20260507053700 44 351 0.0 0.0 0.00 0.00 0.00 97 1013.6
20260507052854 44 353 0.0 0.0 0.00 0.00 0.00 97 1013.4
20260507052354 44 353 0.0 1.0 0.00 0.00 0.00 97 1013.4
20260507051854 44 353 0.0 1.0 0.00 0.00 0.00 97 1013.3
20260507051354 43 295 0.0 0.0 0.00 0.00 0.00 97 1013.3
20260507050855 43 295 0.0 0.0 0.00 0.00 0.00 97 1013.3
20260507050353 43 295 0.0 0.0 0.00 0.00 0.00 96 1013.2
20260507045853 43 295 0.0 0.0 0.00 0.00 0.00 96 1013.2
20260507045354 43 295 0.0 0.0 0.00 0.00 0.00 96 1013.1
20260507044853 43 295 0.0 0.0 0.00 0.00 0.00 96 1013.1
20260507044355 44 295 0.0 0.0 0.00 0.00 0.00 97 1012.9
20260507043855 44 295 0.0 0.0 0.00 0.00 0.00 97 1012.9
20260507043352 44 295 0.0 0.0 0.00 0.00 0.00 96 1012.9
20260507042853 44 295 0.0 0.0 0.00 0.00 0.00 96 1012.9
20260507042703 44 295 0.0 1.0 0.00 0.00 0.00 97 1013.0
20260507042011 43 295 1.0 1.0 0.00 0.00 0.00 96 1013.1
20260507041944 43 295 1.0 1.0 0.00 0.00 0.00 96 1013.0
20260507040853 44 295 0.0 0.0 0.00 0.00 0.00 96 1013.1
20260507040405 44 295 0.0 0.0 0.00 0.00 0.00 96 1013.0
20260507035853 44 295 0.0 0.0 0.00 0.00 0.00 96 1013.1
20260507035349 44 295 0.0 0.0 0.00 0.00 0.00 96 1013.2
20260507034851 44 295 0.0 0.0 0.00 0.00 0.00 96 1013.1
20260507034703 44 295 0.0 0.0 0.00 0.00 0.00 96 1013.2
20260507033905 44 295 0.0 1.0 0.00 0.00 0.00 96 1013.2
20260507033355 44 295 0.0 1.0 0.00 0.00 0.00 96 1013.2
20260507032851 45 295 0.0 0.0 0.00 0.00 0.00 96 1013.2
20260507032352 45 295 0.0 0.0 0.00 0.00 0.00 96 1013.2
20260507031851 45 295 0.0 0.0 0.00 0.00 0.00 96 1013.2
20260507031352 45 295 0.0 1.0 0.00 0.00 0.00 96 1013.2
20260507030850 45 295 0.0 1.0 0.00 0.01 0.00 96 1013.3
20260507030351 45 295 0.0 1.0 0.00 0.01 0.00 96 1013.2
20260507030016 45 295 0.0 1.0 0.00 0.01 0.00 96 1013.3
20260507025947 45 295 0.0 1.0 0.00 0.01 0.00 96 1013.3
20260507024850 45 295 0.0 1.0 0.00 0.01 0.00 96 1013.2
20260507024350 45 295 0.0 0.0 0.00 0.01 0.00 96 1013.3
20260507023853 45 295 0.0 0.0 0.00 0.01 0.00 96 1013.2
20260507023351 45 295 0.0 0.0 0.00 0.01 0.00 96 1013.2
20260507022848 45 295 0.0 0.0 0.00 0.01 0.00 96 1013.2
20260507022350 45 295 0.0 0.0 0.00 0.01 0.00 96 1013.3
20260507021849 45 295 0.0 0.0 0.00 0.01 0.00 96 1013.3
20260507021350 45 295 0.0 0.0 0.00 0.01 0.00 96 1013.3
20260507020850 45 295 0.0 0.0 0.00 0.01 0.00 95 1013.4
20260507020350 45 295 0.0 0.0 0.00 0.01 0.00 95 1013.4
20260507015849 45 295 0.0 0.0 0.00 0.01 0.00 95 1013.4
20260507015659 46 295 0.0 0.0 0.00 0.01 0.00 95 1013.4
20260507014849 46 295 0.0 0.0 0.00 0.01 0.00 95 1013.4
20260507014350 46 295 0.0 0.0 0.00 0.01 0.00 95 1013.4
20260507013848 46 295 0.0 1.0 0.00 0.01 0.00 95 1013.5
20260507013349 46 295 0.0 1.0 0.00 0.01 0.00 95 1013.5
20260507012848 46 295 0.0 0.0 0.00 0.01 0.00 95 1013.5
20260507012657 46 295 0.0 0.0 0.00 0.01 0.00 95 1013.4
20260507011850 46 295 0.0 0.0 0.00 0.01 0.00 95 1013.4
20260507011350 46 295 0.0 0.0 0.00 0.01 0.00 95 1013.5
20260507010850 46 295 0.0 0.0 0.00 0.01 0.00 95 1013.5
20260507010348 46 295 0.0 0.0 0.00 0.01 0.00 95 1013.6
20260507005849 46 295 0.0 0.0 0.00 0.01 0.00 95 1013.5
20260507005347 46 295 0.0 0.0 0.00 0.01 0.00 95 1013.6
20260507004847 46 295 0.0 0.0 0.00 0.01 0.00 95 1013.7
20260507004348 46 295 0.0 0.0 0.00 0.01 0.00 94 1013.7
20260507003847 47 295 0.0 0.0 0.00 0.01 0.00 95 1013.7
20260507003348 47 295 0.0 0.0 0.00 0.01 0.00 95 1013.7
20260507002846 47 295 0.0 0.0 0.00 0.01 0.00 94 1013.7
20260507002349 47 295 0.0 0.0 0.00 0.01 0.00 94 1013.8
20260507001847 47 295 0.0 0.0 0.00 0.01 0.00 94 1013.8
20260507001348 47 295 0.0 0.0 0.00 0.01 0.00 94 1013.8
20260507000847 47 295 0.0 0.0 0.00 0.01 0.00 94 1013.9
20260507000347 47 295 0.0 0.0 0.00 0.01 0.00 94 1013.9
20260506235847 47 295 0.0 0.0 0.00 0.01 0.00 94 1013.9
20260506235347 47 295 0.0 0.0 0.00 0.01 0.00 94 1013.9
20260506235204 47 295 0.0 0.0 0.00 0.01 0.00 94 1013.9
20260506234346 48 295 0.0 0.0 0.00 0.01 0.00 94 1013.9
20260506233847 48 295 0.0 0.0 0.00 0.01 0.00 94 1014.0
20260506233346 48 295 0.0 0.0 0.00 0.01 0.00 94 1013.9
20260506232846 48 295 0.0 1.0 0.00 0.01 0.00 93 1013.9
20260506232701 48 295 0.0 1.0 0.00 0.01 0.00 93 1014.0
20260506231845 48 295 0.0 1.0 0.00 0.01 0.00 93 1014.1
20260506231346 48 295 0.0 1.0 0.00 0.01 0.00 93 1014.1
20260506231208 49 295 0.0 0.0 0.00 0.01 0.00 93 1014.0
20260506230346 49 295 0.0 0.0 0.00 0.01 0.00 93 1013.9
20260506230157 49 295 0.0 0.0 0.00 0.01 0.00 92 1013.9
20260506225656 49 295 0.0 0.0 0.00 0.01 0.00 92 1013.9
20260506224846 49 295 0.0 0.0 0.00 0.01 0.00 92 1013.9
20260506224345 49 295 0.0 0.0 0.00 0.01 0.00 92 1013.9
20260506223845 49 295 0.0 0.0 0.00 0.01 0.00 91 1013.9
20260506223345 50 295 0.0 0.0 0.00 0.01 0.00 91 1013.8
20260506222846 50 295 0.0 0.0 0.00 0.01 0.00 91 1013.9
20260506222344 50 295 0.0 0.0 0.00 0.01 0.00 91 1013.9
20260506221846 50 295 0.0 0.0 0.00 0.01 0.00 91 1013.9
20260506221344 50 295 0.0 0.0 0.00 0.01 0.00 90 1013.9
20260506220847 50 295 0.0 0.0 0.00 0.01 0.00 90 1013.9
20260506220345 50 295 0.0 0.0 0.00 0.01 0.00 89 1013.9
20260506215845 51 295 0.0 0.0 0.00 0.01 0.01 89 1013.9
20260506215704 51 295 0.0 0.0 0.00 0.01 0.01 88 1013.9
20260506214846 51 295 0.0 0.0 0.00 0.01 0.01 88 1013.9
20260506214346 51 295 0.0 0.0 0.00 0.01 0.01 87 1013.8
20260506213843 51 295 0.0 0.0 0.00 0.01 0.01 87 1013.9
20260506213347 52 295 0.0 0.0 0.00 0.01 0.01 87 1013.9
20260506212844 52 295 0.0 0.0 0.00 0.01 0.01 86 1013.8
20260506212342 53 295 0.0 0.0 0.00 0.01 0.01 86 1013.9
20260506211843 53 295 0.0 0.0 0.00 0.01 0.01 86 1013.8
20260506211345 53 295 0.0 1.0 0.00 0.01 0.01 85 1013.8
20260506210843 53 28 0.0 1.0 0.00 0.01 0.01 86 1013.9
20260506210344 54 262 0.0 2.0 0.00 0.01 0.01 86 1013.9
20260506205845 54 262 0.0 2.0 0.00 0.01 0.01 86 1014.0
20260506205702 54 259 0.0 3.0 0.00 0.01 0.01 86 1014.0
20260506204846 54 279 0.0 5.0 0.00 0.01 0.01 85 1014.0
20260506204344 54 312 2.0 5.0 0.00 0.01 0.01 85 1013.9
20260506203842 54 296 1.0 3.0 0.00 0.01 0.01 85 1013.8
20260506203343 54 306 0.0 3.0 0.00 0.01 0.01 86 1013.6
20260506203207 54 289 0.0 3.0 0.00 0.01 0.01 86 1013.7
20260506202658 54 283 0.0 1.0 0.00 0.01 0.01 87 1013.5
20260506201843 53 283 0.0 0.0 0.00 0.01 0.01 87 1013.5
20260506201343 53 283 0.0 0.0 0.00 0.01 0.01 87 1013.4
20260506200843 53 283 0.0 0.0 0.00 0.01 0.01 87 1013.3
20260506200345 53 283 0.0 0.0 0.00 0.01 0.01 87 1013.3
20260506195841 54 283 0.0 0.0 0.00 0.01 0.01 86 1013.2
20260506195341 54 283 0.0 0.0 0.00 0.01 0.01 86 1013.3
20260506194842 54 283 0.0 0.0 0.00 0.01 0.01 85 1013.1
20260506194706 54 283 0.0 1.0 0.00 0.01 0.01 85 1013.1
20260506193842 54 283 0.0 1.0 0.00 0.01 0.01 85 1013.0
20260506193341 54 282 0.0 1.0 0.00 0.01 0.01 84 1012.8
20260506192843 55 271 0.0 0.0 0.00 0.01 0.01 84 1012.9
20260506192340 55 269 0.0 0.0 0.00 0.01 0.01 83 1012.8
20260506191843 55 271 0.0 0.0 0.00 0.01 0.01 83 1012.7
20260506191340 55 269 0.0 0.0 0.00 0.01 0.01 83 1012.6
20260506190841 56 269 0.0 1.0 0.00 0.01 0.01 83 1012.5
20260506190341 56 271 0.0 1.0 0.00 0.01 0.01 82 1012.5
20260506185840 56 271 0.0 1.0 0.00 0.01 0.01 81 1012.5
20260506185340 56 269 0.0 0.0 0.00 0.01 0.01 81 1012.4
20260506184840 56 271 0.0 1.0 0.00 0.01 0.01 81 1012.3
20260506184703 57 271 0.0 1.0 0.00 0.01 0.01 80 1012.3
20260506184038 57 271 0.0 1.0 0.00 0.01 0.01 80 1012.2
20260506183952 57 271 0.0 1.0 0.00 0.01 0.01 79 1012.3
20260506182841 57 271 0.0 2.0 0.00 0.01 0.01 80 1012.1
20260506182339 57 268 0.0 2.0 0.00 0.01 0.01 78 1012.1
20260506181838 57 282 0.0 4.0 0.00 0.01 0.01 78 1012.1
20260506181339 58 293 0.0 4.0 0.00 0.01 0.01 77 1012.0
20260506180839 58 317 0.0 5.0 0.00 0.01 0.01 76 1011.9
20260506180340 58 317 1.0 6.0 0.00 0.01 0.01 76 1011.9
20260506175839 58 275 1.0 6.0 0.00 0.01 0.01 76 1011.8
20260506175337 58 271 1.0 3.0 0.00 0.01 0.01 76 1011.8
20260506174838 58 300 1.0 3.0 0.00 0.01 0.01 76 1011.8
20260506174337 58 271 0.0 7.0 0.00 0.01 0.01 75 1011.8
20260506173837 58 268 2.0 7.0 0.00 0.01 0.01 74 1011.6
20260506173342 58 281 2.0 4.0 0.00 0.01 0.01 75 1011.6
20260506172837 58 305 1.0 5.0 0.00 0.01 0.01 75 1011.6
20260506172643 58 288 1.0 6.0 0.00 0.01 0.01 74 1011.6
20260506172159 58 309 1.0 6.0 0.00 0.01 0.01 74 1011.6
20260506171339 58 274 0.0 7.0 0.00 0.01 0.01 74 1011.5
20260506170839 58 272 2.0 9.0 0.00 0.01 0.01 72 1011.4
20260506170338 58 293 3.0 9.0 0.00 0.01 0.01 72 1011.3
20260506165839 59 310 3.0 14.0 0.00 0.01 0.01 70 1011.3
20260506165338 59 302 5.0 14.0 0.00 0.01 0.01 69 1011.3
20260506164838 60 288 2.0 7.0 0.00 0.01 0.01 70 1011.2
20260506164338 60 48 2.0 7.0 0.00 0.01 0.01 70 1011.1
20260506163836 60 298 2.0 10.0 0.00 0.01 0.01 71 1011.1
20260506163337 60 296 4.0 10.0 0.00 0.01 0.01 71 1011.1
20260506162835 60 316 4.0 10.0 0.00 0.01 0.01 71 1011.0
20260506162657 60 306 5.0 10.0 0.00 0.02 0.01 69 1010.9
20260506161836 60 324 2.0 11.0 0.00 0.02 0.01 70 1010.8
20260506161337 60 319 4.0 11.0 0.00 0.02 0.01 70 1010.8
20260506160851 60 243 2.0 7.0 0.00 0.03 0.01 72 1010.8
20260506160348 60 293 2.0 6.0 0.00 0.03 0.01 71 1010.8
20260506160144 60 321 2.0 6.0 0.00 0.04 0.01 72 1010.8
20260506155337 60 276 1.0 6.0 0.00 0.04 0.01 73 1010.8
20260506154835 60 310 2.0 10.0 0.00 0.05 0.01 72 1010.8
20260506154337 60 281 3.0 12.0 0.00 0.05 0.01 71 1010.7
20260506153835 60 306 4.0 12.0 0.00 0.06 0.01 69 1010.6
20260506153334 60 327 3.0 10.0 0.00 0.06 0.01 69 1010.6
20260506152835 61 255 5.0 9.0 0.00 0.08 0.01 69 1010.6
20260506152336 61 295 3.0 9.0 0.00 0.09 0.01 69 1010.6
20260506151835 61 327 4.0 10.0 0.00 0.09 0.01 70 1010.7
20260506151336 60 320 3.0 10.0 0.00 0.10 0.01 71 1010.7
20260506150835 61 313 3.0 13.0 0.00 0.10 0.01 69 1010.6
20260506150335 61 310 4.0 13.0 0.00 0.11 0.01 67 1010.7
20260506150147 62 298 5.0 10.0 0.00 0.12 0.01 67 1010.6
20260506145336 62 300 4.0 10.0 0.00 0.14 0.01 67 1010.6
20260506144834 62 231 1.0 10.0 0.00 0.15 0.01 71 1010.6
20260506144333 61 313 5.0 10.0 0.00 0.16 0.01 69 1010.7
20260506143835 62 307 4.0 11.0 0.00 0.17 0.01 68 1010.7
20260506143334 62 296 4.0 11.0 0.00 0.20 0.01 67 1010.6
20260506142834 62 288 3.0 7.0 0.00 0.23 0.01 71 1010.6
20260506142335 62 295 2.0 10.0 0.00 0.27 0.01 68 1010.6
20260506141834 62 319 3.0 10.0 0.00 0.29 0.01 68 1010.6
20260506141334 62 309 3.0 10.0 0.00 0.31 0.01 67 1010.7
20260506140833 62 321 3.0 10.0 0.00 0.31 0.01 69 1010.6
20260506140332 62 314 4.0 10.0 0.00 0.31 0.01 70 1010.6
20260506135833 62 289 3.0 10.0 0.00 0.31 0.01 70 1010.7
20260506135332 62 316 4.0 10.0 0.00 0.31 0.01 69 1010.7
20260506134833 61 292 2.0 9.0 0.00 0.31 0.01 70 1010.7
20260506134331 61 286 4.0 9.0 0.00 0.31 0.01 71 1010.8
20260506133833 61 285 4.0 9.0 0.00 0.31 0.01 70 1010.7
20260506133642 62 324 3.0 7.0 0.00 0.31 0.01 68 1010.8
20260506132832 61 305 4.0 10.0 0.00 0.31 0.01 68 1010.8
20260506132332 61 278 4.0 13.0 0.00 0.31 0.01 67 1010.8
20260506132140 60 310 3.0 13.0 0.00 0.31 0.01 72 1010.8
20260506131331 61 323 4.0 12.0 0.00 0.31 0.01 70 1010.8
20260506130832 62 303 7.0 12.0 0.00 0.31 0.01 67 1010.8